Northeast Philadelphia, PA

3:57 PM EST on November 12, 2019 (GMT -0500)
Northeast Philadelphia

Weather History for KPNE - September, 2019

Change the Weather History Date:

Friday, September 13, 2019

  Actual Average Record
Temperature  
Mean Temperature 68 °F -  
Max Temperature 73 °F 76 °F 93 °F (2005)
Min Temperature 64 °F 58 °F 52 °F (2002)
Cooling Degree Days 3    
Growing Degree Days 18 (Base 50)    
Moisture  
Dew Point 56 °F    
Average Humidity 70    
Maximum Humidity 90    
Minimum Humidity 51    
Precipitation  
Precipitation 0.03 in - - ()
Sea Level Pressure  
Sea Level Pressure 30.38 in    
Wind  
Wind Speed 11 mph ()    
Max Wind Speed 18 mph    
Max Gust Speed 23 mph    
Visibility 8.2 miles    
Events Rain    
Averages and records for this station are not official NWS values.
T = Trace of Precipitation, MM = Missing Value Source: Averaged Metar Reports

Daily Weather History Graph

Daily Weather History Graph

Search for Another Location

Airport or City:

Astronomy

Sep. 13, 2019 Rise Set
Actual Time 6:38 AM EDT 7:12 PM EDT
Civil Twilight 6:11 AM EDT 7:39 PM EDT
Nautical Twilight 5:39 AM EDT 8:11 PM EDT
Astronomical Twilight 5:06 AM EDT 8:44 PM EDT
Moon 7:24 PM EDT (9/13) 5:53 AM EDT (9/13)
Length of Visible Light 13h 28m
Length of Day
12h 33m
Full, 100% of the Moon is Illuminated
Sep 13
Full
Sep 14
Full
Sep 21
Last Quarter
Sep 28
New
Oct 5
First Quarter

Hourly Weather History & Observations

Time (EDT) Temp. Dew Point Humidity Pressure Visibility Wind Dir Wind Speed Gust Speed Precip Events Conditions
12:10 AM 66.9 °F 63.0 °F 87% 30.27 in 2.0 mi East 10.4 mph - 0.01 in Rain Light Rain
12:18 AM 66.0 °F 63.0 °F 90% 30.27 in 2.5 mi East 12.7 mph - 0.01 in Rain Light Rain
12:32 AM 66.0 °F 62.1 °F 87% 30.27 in 3.0 mi East 11.5 mph - 0.02 in   Overcast
12:40 AM 66.0 °F 62.1 °F 87% 30.28 in 2.5 mi East 12.7 mph - 0.02 in Rain Light Rain
12:50 AM 66.2 °F 62.6 °F 88% 30.28 in 3.0 mi East 12.7 mph - 0.03 in Rain Light Rain
12:54 AM 66.0 °F 62.1 °F 87% 30.28 in 2.5 mi ENE 13.8 mph - 0.03 in Rain Light Rain
1:05 AM 64.9 °F 61.0 °F 87% 30.30 in 4.0 mi East 18.4 mph - 0.00 in Rain Light Rain
1:18 AM 64.9 °F 61.0 °F 87% 30.30 in 6.0 mi ENE 10.4 mph - 0.00 in   Overcast
1:54 AM 66.0 °F 60.1 °F 81% 30.30 in 10.0 mi ENE 11.5 mph - 0.00 in   Overcast
2:54 AM 64.9 °F 59.0 °F 81% 30.30 in 10.0 mi ENE 9.2 mph - N/A   Overcast
3:54 AM 64.9 °F 57.0 °F 75% 30.31 in 10.0 mi ENE 10.4 mph - N/A   Overcast
4:54 AM 64.0 °F 55.0 °F 73% 30.34 in 10.0 mi ENE 8.1 mph - N/A   Overcast
5:54 AM 64.0 °F 55.0 °F 73% 30.36 in 10.0 mi ENE 11.5 mph - N/A   Overcast
6:54 AM 64.0 °F 53.1 °F 67% 30.38 in 10.0 mi ENE 13.8 mph - N/A   Overcast
7:54 AM 64.0 °F 54.0 °F 70% 30.40 in 10.0 mi NE 11.5 mph - N/A   Overcast
8:54 AM 64.9 °F 54.0 °F 68% 30.42 in 10.0 mi ENE 11.5 mph - N/A   Overcast
9:54 AM 66.0 °F 55.0 °F 68% 30.44 in 10.0 mi ENE 10.4 mph - N/A   Overcast
10:54 AM 68.0 °F 55.0 °F 63% 30.45 in 10.0 mi East 15.0 mph 23.0 mph N/A   Overcast
11:54 AM 69.1 °F 54.0 °F 58% 30.45 in 10.0 mi East 11.5 mph - N/A   Overcast
12:54 PM 71.1 °F 54.0 °F 55% 30.45 in 10.0 mi ESE 16.1 mph - N/A   Overcast
1:54 PM 70.0 °F 54.0 °F 57% 30.45 in 10.0 mi ESE 15.0 mph - N/A   Overcast
2:54 PM 72.0 °F 53.1 °F 51% 30.44 in 10.0 mi East 15.0 mph - N/A   Overcast
3:54 PM 71.1 °F 52.0 °F 51% 30.44 in 10.0 mi ESE 10.4 mph 19.6 mph N/A   Overcast
4:54 PM 70.0 °F 51.1 °F 51% 30.44 in 10.0 mi East 15.0 mph - N/A   Overcast
5:54 PM 69.1 °F 51.1 °F 53% 30.45 in 10.0 mi ESE 11.5 mph - N/A   Overcast
6:54 PM 68.0 °F 52.0 °F 56% 30.43 in 10.0 mi ESE 13.8 mph - N/A   Overcast
7:54 PM 66.9 °F 52.0 °F 59% 30.43 in 10.0 mi ESE 9.2 mph - N/A   Overcast
8:54 PM 66.0 °F 52.0 °F 60% 30.44 in 10.0 mi ESE 6.9 mph - N/A   Overcast
9:54 PM 64.0 °F 52.0 °F 65% 30.43 in 10.0 mi ESE 5.8 mph - N/A   Clear
10:54 PM 64.9 °F 52.0 °F 63% 30.42 in 10.0 mi ESE 6.9 mph - N/A   Overcast
11:54 PM 64.9 °F 52.0 °F 63% 30.41 in 10.0 mi ESE 8.1 mph - N/A   Overcast